This is the latest recevied weather packets stored in our database for station/object KK7ISX. If no packets are shown the sender has not sent any weather packets the latest 10 day(s).
| Time | Temp. | Humidity | Pressure | Rain* | Wind** | Luminosity | Snow |
|---|---|---|---|---|---|---|---|
| 1777822513 | 16.67° C | 52% | 1014.9 hPa | 0 mm | - | 341 W/m² | - |
| 1777822210 | 16.67° C | 53% | 1014.8 hPa | 0 mm | - | 324 W/m² | - |
| 1777821908 | 15° C | 56% | 1014.8 hPa | 0 mm | - | 307 W/m² | - |
| 1777821605 | 15° C | 56% | 1014.8 hPa | 0 mm | - | 292 W/m² | - |
| 1777821303 | 14.44° C | 57% | 1014.7 hPa | 0 mm | - | 275 W/m² | - |
| 1777821000 | 14.44° C | 57% | 1014.8 hPa | 0 mm | - | 260 W/m² | - |
| 1777820696 | 13.89° C | 57% | 1014.9 hPa | 0 mm | - | 242 W/m² | - |
| 1777820392 | 14.44° C | 57% | 1014.8 hPa | 0 mm | - | 231 W/m² | - |
| 1777820090 | 15° C | 55% | 1014.6 hPa | 0 mm | - | 216 W/m² | - |
| 1777819787 | 14.44° C | 55% | 1014.5 hPa | 0 mm | - | 204 W/m² | - |
| 1777819485 | 14.44° C | 56% | 1014.8 hPa | 0 mm | - | 188 W/m² | - |
| 1777819183 | 13.89° C | 57% | 1014.9 hPa | 0 mm | - | 55 W/m² | - |
| 1777818879 | 13.33° C | 57% | 1014.6 hPa | 0 mm | - | 57 W/m² | - |
| 1777818575 | 13.33° C | 58% | 1014.6 hPa | 0 mm | - | 51 W/m² | - |
| 1777818273 | 12.78° C | 60% | 1014.7 hPa | 0 mm | - | 50 W/m² | - |
| 1777817963 | 12.78° C | 59% | 1014.8 hPa | 0 mm | - | 48 W/m² | - |
| 1777817661 | 12.78° C | 59% | 1014.7 hPa | 0 mm | - | 47 W/m² | - |
| 1777817358 | 11.67° C | 60% | 1014.6 hPa | 0 mm | - | 45 W/m² | - |
| 1777817055 | 11.67° C | 64% | 1014.7 hPa | 0 mm | - | 44 W/m² | - |
| 1777816750 | 10.56° C | 65% | 1014.7 hPa | 0 mm | - | 42 W/m² | - |
| 1777816449 | 10° C | 66% | 1014.6 hPa | 0 mm | - | 41 W/m² | - |
| 1777816145 | 9.44° C | 69% | 1014.5 hPa | 0 mm | - | 43 W/m² | - |
| 1777815843 | 8.89° C | 70% | 1014.6 hPa | 0 mm | - | 68 W/m² | - |
| 1777815540 | 8.33° C | 72% | 1014.6 hPa | 0 mm | - | 62 W/m² | - |
| 1777815237 | 8.33° C | 73% | 1014.7 hPa | 0 mm | - | 56 W/m² | - |
* Rain latest hour (hover to see other rain measurements)
** Current wind speed in m/s (hover to see current wind gust speed)